Santa Fe, NM

3:13 PM MST on February 24, 2017 (GMT -0700)
Santa Fe Municipal

Weather History for KSAF - August, 2013

Change the Weather History Date:

Tuesday, August 20, 2013

  Actual Average Record
Temperature  
Mean Temperature 70 °F -  
Max Temperature 89 °F 82 °F 95 °F (2007)
Min Temperature 55 °F 50 °F 50 °F (1980)
Cooling Degree Days 6    
Growing Degree Days 20 (Base 50)    
Moisture  
Dew Point 54 °F    
Average Humidity 58    
Maximum Humidity 89    
Minimum Humidity 26    
Precipitation  
Precipitation 0.19 in - - ()
Sea Level Pressure  
Sea Level Pressure 29.97 in    
Wind  
Wind Speed 5 mph (ENE)    
Max Wind Speed 24 mph    
Max Gust Speed 44 mph    
Visibility 9 miles    
Events Rain , Thunderstorm    
Averages and records for this station are not official NWS values.
T = Trace of Precipitation, MM = Missing Value Source: NWS Daily Summary

Daily Weather History Graph

Daily Weather History Graph

Search for Another Location

Airport or City:

Trip Planner

Search our weather history database for the weather conditions in past years. The results will help you decide how hot, cold, wet, or windy it might be!

Date:

Astronomy

Aug. 20, 2013 Rise Set
Actual Time 6:27 AM MDT 7:47 PM MDT
Civil Twilight 6:00 AM MDT 8:13 PM MDT
Nautical Twilight 5:28 AM MDT 8:45 PM MDT
Astronomical Twilight 4:55 AM MDT 9:18 PM MDT
Moon 7:22 PM MDT (8/20) 5:59 AM MDT (8/20)
Length of Visible Light 14h 12m
Length of Day
13h 19m
Full, 100% of the Moon is Illuminated
Aug 20
Full
Aug 20
Full
Aug 28
Last Quarter
Sep 5
New
Sep 12
First Quarter

Hourly Weather History & Observations

Time (MDT) Temp. Dew Point Humidity Pressure Visibility Wind Dir Wind Speed Gust Speed Precip Events Conditions
12:53 AM 62.1 °F 54.0 °F 75% 29.97 in 10.0 mi Calm Calm - N/A   Clear
1:53 AM 61.0 °F 54.0 °F 78% 29.95 in 10.0 mi Calm Calm - N/A   Clear
2:53 AM 62.1 °F 53.1 °F 72% 29.95 in 10.0 mi Calm Calm - N/A   Clear
3:53 AM 61.0 °F 54.0 °F 78% 29.94 in 10.0 mi Calm Calm - N/A   Clear
4:53 AM 61.0 °F 54.0 °F 78% 29.92 in 10.0 mi Calm Calm - N/A   Clear
5:53 AM 55.0 °F 52.0 °F 89% 29.94 in 10.0 mi NNW 4.6 mph - N/A   Clear
6:53 AM 57.9 °F 52.0 °F 81% 29.94 in 10.0 mi NNE 9.2 mph - N/A   Clear
7:53 AM 62.1 °F 54.0 °F 75% 29.96 in 10.0 mi North 5.8 mph - N/A   Clear
8:53 AM 68.0 °F 53.1 °F 59% 29.96 in 10.0 mi North 9.2 mph - N/A   Clear
9:53 AM 73.0 °F 52.0 °F 48% 29.94 in 10.0 mi NNW 12.7 mph - N/A   Clear
10:53 AM 78.1 °F 50.0 °F 37% 29.92 in 10.0 mi North 12.7 mph 18.4 mph N/A   Clear
11:53 AM 81.0 °F 46.0 °F 29% 29.91 in 10.0 mi South 5.8 mph - N/A   Clear
12:53 PM 84.0 °F 46.0 °F 26% 29.89 in 10.0 mi Variable 4.6 mph - N/A   Clear
1:53 PM 84.0 °F 48.0 °F 28% 29.87 in 10.0 mi Variable 3.5 mph - N/A   Clear
2:06 PM 86.0 °F 48.2 °F 27% 30.18 in 10.0 mi SW 10.4 mph - N/A Thunderstorm Clear
2:53 PM 86.0 °F 46.9 °F 26% 29.85 in 10.0 mi South 8.1 mph - N/A Thunderstorm Thunderstorm
3:18 PM 73.4 °F 55.4 °F 53% 30.20 in 6.0 mi ESE 24.2 mph 38.0 mph 0.01 in Rain , Thunderstorm Thunderstorms and Rain
3:29 PM 71.6 °F 50.0 °F 46% 30.21 in 1.8 mi ENE 16.1 mph 43.7 mph 0.14 in Rain , Thunderstorm Heavy Thunderstorms and Rain
3:40 PM 73.4 °F 48.2 °F 41% 30.18 in 3.0 mi West 11.5 mph 16.1 mph 0.19 in Rain , Thunderstorm Light Thunderstorms and Rain
3:53 PM 70.0 °F 57.9 °F 65% 29.91 in 10.0 mi WNW 9.2 mph - 0.19 in Rain , Thunderstorm Light Rain
4:31 PM 71.6 °F 60.8 °F 69% 30.18 in 10.0 mi East 6.9 mph - 0.00 in   Partly Cloudy
4:53 PM 72.0 °F 61.0 °F 68% 29.91 in 10.0 mi SE 6.9 mph - 0.00 in   Partly Cloudy
5:53 PM 73.9 °F 60.1 °F 62% 29.91 in 10.0 mi Calm Calm - N/A   Clear
6:53 PM 75.9 °F 55.9 °F 50% 29.90 in 10.0 mi Calm Calm - N/A   Clear
7:53 PM 73.9 °F 55.9 °F 53% 29.92 in 10.0 mi Calm Calm - N/A   Partly Cloudy
8:53 PM 71.1 °F 60.1 °F 68% 29.92 in 10.0 mi ESE 6.9 mph - N/A   Clear
9:53 PM 70.0 °F 57.0 °F 63% 29.93 in 10.0 mi ESE 8.1 mph - N/A   Partly Cloudy
10:53 PM 69.1 °F 57.0 °F 65% 29.92 in 10.0 mi ESE 4.6 mph - N/A   Clear
11:53 PM 66.9 °F 55.9 °F 68% 29.92 in 10.0 mi ESE 4.6 mph - N/A   Partly Cloudy